Weather reports worldwide

Advertisment
Berlin-Schönefeld, Germany (10385): temperature & dewpoint: 16.01.2019 04:00:00 - 22.01.2019 04:00:00 (CET)Berlin-Schönefeld, Germany (10385): temperature 5cm & temperature -5cm: 16.01.2019 04:00:00 - 22.01.2019 04:00:00 (CET)Berlin-Schönefeld, Germany (10385): temperature -20cm & temperature -100cm: 16.01.2019 04:00:00 - 22.01.2019 04:00:00 (CET)Berlin-Schönefeld, Germany (10385): wind speed & gusts: 16.01.2019 04:00:00 - 22.01.2019 04:00:00 (CET)Berlin-Schönefeld, Germany (10385): wind direction: 16.01.2019 04:00:00 - 22.01.2019 04:00:00 (CET)Berlin-Schönefeld, Germany (10385): reduced air pressure: 16.01.2019 04:00:00 - 22.01.2019 04:00:00 (CET)Berlin-Schönefeld, Germany (10385): visibility: 16.01.2019 04:00:00 - 22.01.2019 04:00:00 (CET)Berlin-Schönefeld, Germany (10385): sunshine duration: 16.01.2019 04:00:00 - 22.01.2019 04:00:00 (CET)Berlin-Schönefeld, Germany (10385): precipitation: 16.01.2019 04:00:00 - 22.01.2019 04:00:00 (CET)
Date & Time tt [°C] td [°C] tt 5cm [°C] tt -5cm [°C] tt -20cm [°C] tt -100cm [°C] ff [km/h] ff [kn] fx [km/h] fx [kn] dd ppp [hPa] vv [km] sd [min] rr [mm]
22.01.2019 04:00:00 -6,5 -7,2 -8,5 -1,7 0,9 5,1 5 3 9 5 S 1016,5 4,7 0 0,0
22.01.2019 03:00:00 -6,5 -7,2 -8,5 -1,5 0,9 5,1 8 4 9 5 SSE 1017,3 4,7 0 0,0
22.01.2019 02:00:00 -6,0 -6,6 -8,8 -1,3 0,9 5,1 9 5 11 6 SSE 1017,9 5 0 0,0
22.01.2019 01:00:00 -5,4 -6,3 -7,6 -1,1 1,0 5,1 9 5 15 8 S 1018,3 5 0 0,0
22.01.2019 00:00:00 -4,9 -5,9 -6,5 -0,9 1,0 5,1 13 7 22 12 SSW 1018,6 6 0 0,0
21.01.2019 23:00:00 -4,2 -5,3 -4,6 -0,6 1,0 5,1 16 9 23 13 SSW 1019,0 7 0 0,0
21.01.2019 22:00:00 -4,1 -5,2 -4,5 -0,6 1,0 5,1 13 7 18 10 S 1019,3 7 0 0,0
21.01.2019 21:00:00 -4,3 -5,2 -4,8 -0,6 1,0 5,1 11 6 21 11 S 1019,8 8 0 0,0
21.01.2019 20:00:00 -4,1 -5,1 -5,1 -0,5 1,1 5,1 13 7 16 9 S 1019,9 9 0 0,0
21.01.2019 19:00:00 -3,9 -4,8 -5,5 -0,4 1,1 5,1 9 5 24 13 SW 1020,4 10 0 0,0
21.01.2019 18:00:00 -3,3 -4,8 -3,9 -0,3 1,1 5,2 13 7 23 13 SSW 1020,6 10 0 0,0
21.01.2019 17:00:00 -3,1 -5,0 -3,7 -0,2 1,1 5,2 16 9 23 13 SSW 1020,7 12 9 0,0
21.01.2019 16:00:00 -2,7 -4,9 -3,4 0,0 1,1 5,2 16 9 22 12 SSW 1021,0 10 60 0,0
21.01.2019 15:00:00 -2,1 -4,6 -1,0 0,0 1,1 5,2 15 8 18 10 SSW 1021,5 16 50 0,0
21.01.2019 14:00:00 -2,7 -4,8 -1,2 -0,1 1,1 5,2 15 8 21 11 SW 1022,5 10 1 0,0
21.01.2019 13:00:00 -3,4 -4,8 -2,1 -0,1 1,1 5,2 15 8 21 11 SSW 1022,7 7 0 0,0
21.01.2019 12:00:00 -3,5 -4,8 -2,2 -0,1 1,1 5,2 13 7 21 11 SSW 1023,5 5 0 0,0
21.01.2019 11:00:00 -3,5 -4,6 -2,8 -0,2 1,1 5,2 13 7 18 10 SSW 1024,1 6 0 0,0
21.01.2019 10:00:00 -4,1 -4,9 -3,4 -0,2 1,1 5,2 5 3 18 10 WSW 1024,1 6 0 0,0
21.01.2019 09:00:00 -4,1 -5,1 -3,7 -0,3 1,1 5,2 11 6 18 10 WSW 1024,0 6 0 0,0
21.01.2019 08:00:00 -4,1 -5,3 -3,8 -0,2 1,1 5,3 11 6 17 9 SW 1023,9 8 0 0,0
21.01.2019 07:00:00 -3,4 -4,7 -3,4 -0,2 1,2 5,3 13 7 16 9 SW 1023,6 10 0 0,0
21.01.2019 06:00:00 -3,2 -4,8 -3,2 -0,2 1,2 5,3 11 6 16 9 WSW 1023,6 10 0 0,0
21.01.2019 05:00:00 -3,1 -4,7 -3,1 -0,2 1,2 5,3 5 3 15 8 SW 1024,0 10 0 0,0
21.01.2019 04:00:00 -2,7 -4,5 -2,7 -0,1 1,2 5,3 9 5 15 8 WSW 1024,0 10 0 0,0
21.01.2019 03:00:00 -2,4 -4,4 -2,5 -0,1 1,2 5,3 5 3 11 6 WSW 1024,1 12 0 0,0
21.01.2019 02:00:00 -2,8 -4,4 -2,7 -0,1 1,2 5,3 4 2 8 4 - 1024,1 10 0 0,0
21.01.2019 01:00:00 -2,7 -4,7 -2,6 -0,1 1,2 5,3 2 1 8 4 - 1024,1 10 0 0,0
21.01.2019 00:00:00 -2,9 -4,7 -2,7 -0,1 1,2 5,3 4 2 13 7 - 1024,1 10 0 0,0
20.01.2019 23:00:00 -2,9 -4,7 -2,5 -0,1 1,2 5,3 5 3 11 6 NE 1023,9 12 0 0,0
20.01.2019 22:00:00 -2,9 -4,4 -2,5 -0,1 1,2 5,4 8 4 15 8 NE 1023,4 10 0 0,0
20.01.2019 21:00:00 -2,8 -4,3 -2,5 -0,1 1,2 5,4 6 3 13 7 NNE 1023,0 12 0 0,0
20.01.2019 20:00:00 -2,5 -3,8 -2,4 -0,1 1,2 5,4 6 3 15 8 ESE 1022,3 14 0 0,0
20.01.2019 19:00:00 -2,5 -4,0 -2,4 0,0 1,2 5,4 9 5 16 9 ENE 1021,7 14 0 0,0
20.01.2019 18:00:00 -2,7 -4,0 -2,6 0,0 1,2 5,4 11 6 18 10 NE 1021,4 12 0 0,0
20.01.2019 17:00:00 -2,5 -3,4 -2,3 0,0 1,3 5,4 16 8 21 11 ENE 1020,9 8 0 0,0
20.01.2019 16:00:00 -1,9 -3,4 -2,4 0,0 1,3 5,4 16 9 21 11 NE 1020,6 10 57 0,0
20.01.2019 15:00:00 0,9 -2,9 2,8 -0,1 1,3 5,4 8 4 11 6 ENE 1020,1 10 60 0,0
20.01.2019 14:00:00 0,7 -3,3 4,3 -0,1 1,3 5,4 4 2 8 4 - 1020,0 10 60 0,0
20.01.2019 13:00:00 0,0 -3,5 3,1 -0,2 1,3 5,4 4 2 9 5 - 1020,2 10 60 0,0
20.01.2019 12:00:00 -1,2 -3,4 1,0 -0,2 1,3 5,4 5 3 9 5 ENE 1020,1 10 60 0,0
20.01.2019 11:00:00 -3,0 -4,8 -2,6 -0,3 1,4 5,4 6 3 9 5 ENE 1020,2 9 60 0,0
20.01.2019 10:00:00 -4,7 -6,1 -2,9 -0,5 1,4 5,5 9 5 11 6 ENE 1019,7 9 60 0,0
20.01.2019 09:00:00 -6,3 -7,5 -6,7 -0,6 1,5 5,5 8 4 9 5 ENE 1019,1 7 13 0,0
20.01.2019 08:00:00 -6,6 -7,5 -8,5 -0,5 1,5 5,5 6 4 9 5 ENE 1018,9 7 0 0,0
20.01.2019 07:00:00 -5,9 -6,7 -8,3 -0,4 1,5 5,5 5 3 8 4 E 1018,6 10 0 0,0
20.01.2019 06:00:00 -6,4 -7,2 -9,1 -0,2 1,6 5,5 8 4 9 5 ENE 1018,5 10 0 0,0
20.01.2019 05:00:00 -5,8 -6,6 -8,8 -0,1 1,6 5,5 5 3 8 4 E 1018,4 10 0 0,0
20.01.2019 04:00:00 -5,4 -6,0 -8,3 0,0 1,7 5,5 7 4 9 5 ENE 1018,5 21 0 0,0
20.01.2019 03:00:00 -5,1 -5,8 -7,0 0,1 1,7 5,5 8 4 9 5 ENE 1018,6 10 0 0,0
20.01.2019 02:00:00 -5,1 -5,8 -6,9 0,2 1,8 5,5 9 5 11 6 ENE 1018,7 10 0 0,0
20.01.2019 01:00:00 -4,5 -5,1 -7,9 0,3 1,8 5,5 5 3 9 5 E 1018,9 10 0 0,0
20.01.2019 00:00:00 -4,0 -4,8 -6,2 0,4 1,8 5,5 9 5 13 7 ENE 1019,2 20 0 0,0
19.01.2019 23:00:00 -2,9 -3,7 -6,1 0,5 1,9 5,6 8 4 9 5 E 1019,3 10 0 0,0
19.01.2019 22:00:00 -3,1 -3,9 -6,3 0,5 1,9 5,6 8 4 11 6 E 1019,6 10 0 0,0
19.01.2019 21:00:00 -2,6 -3,6 -5,3 0,5 1,9 5,6 9 5 11 6 E 1019,4 25 0 0,0
19.01.2019 20:00:00 -2,0 -3,3 -4,4 0,6 1,9 5,6 9 5 15 8 E 1019,7 25 0 0,0
19.01.2019 19:00:00 -1,0 -2,8 -3,7 0,6 2,0 5,6 9 5 13 7 ESE 1019,6 10 0 0,0
19.01.2019 18:00:00 -0,1 -2,5 -3,5 0,7 2,0 5,6 9 5 13 7 ESE 1019,7 15 0 0,0
19.01.2019 17:00:00 1,0 -2,1 -1,7 0,8 2,0 5,6 7 4 8 4 ENE 1019,8 20 0 0,0
19.01.2019 16:00:00 1,6 -1,9 -0,7 0,9 2,0 5,6 4 2 9 5 SE 1019,9 10 6 0,0
19.01.2019 15:00:00 2,1 -1,8 2,4 1,1 1,9 5,6 6 3 9 5 SSE 1020,1 25 60 0,0
19.01.2019 14:00:00 2,6 -1,7 3,5 0,8 1,9 5,6 5 3 13 7 SSW 1020,3 10 60 0,0
19.01.2019 13:00:00 2,0 -2,2 3,0 0,6 1,9 5,6 5 3 13 7 SSW 1020,7 10 60 0,0
19.01.2019 12:00:00 1,8 -2,1 3,5 0,6 2,0 5,6 9 5 11 6 SSW 1021,2 10 60 0,0
19.01.2019 11:00:00 0,7 -2,4 1,1 0,6 2,0 5,7 5 3 13 7 SSW 1021,5 10 60 0,0
19.01.2019 10:00:00 -0,4 -2,7 0,2 0,6 2,0 5,7 5 3 9 5 SSW 1021,5 25 27 0,0
19.01.2019 09:00:00 -1,1 -2,6 -2,6 0,6 2,0 5,7 6 3 11 6 SW 1021,2 25 0 0,0
19.01.2019 08:00:00 -1,3 -3,1 -2,8 0,6 2,0 5,7 10 5 13 7 SW 1020,9 30 0 0,0
19.01.2019 07:00:00 0,0 -2,7 -2,5 0,7 2,1 5,7 6 3 16 9 W 1020,6 50 0 0,0
19.01.2019 06:00:00 0,2 -2,6 -0,7 0,7 2,1 5,7 8 4 18 10 W 1020,7 10 0 0,0
19.01.2019 05:00:00 -0,4 -2,5 -1,7 0,7 2,1 5,7 10 6 15 8 WSW 1020,7 50 0 0,0
19.01.2019 04:00:00 0,7 -2,1 -0,2 0,7 2,1 5,7 5 3 18 10 WNW 1020,7 10 0 0,0
19.01.2019 03:00:00 0,8 -2,0 0,1 0,7 2,1 5,7 8 4 20 11 WNW 1020,8 10 0 0,0
19.01.2019 02:00:00 1,0 -2,7 0,4 0,7 2,2 5,7 11 6 22 12 WNW 1020,6 50 0 0,0
19.01.2019 01:00:00 1,1 -2,5 0,6 0,7 2,2 5,7 18 10 28 15 WNW 1020,9 50 0 0,0
19.01.2019 00:00:00 1,3 -2,1 0,8 0,7 2,2 5,7 13 7 29 16 WNW 1020,9 45 0 0,0
18.01.2019 23:00:00 1,0 -1,0 0,6 0,8 2,3 5,7 11 6 15 8 W 1020,5 10 0 0,0
18.01.2019 22:00:00 0,9 -1,3 0,5 0,8 2,3 5,7 13 7 16 9 W 1020,2 10 0 0,0
18.01.2019 21:00:00 0,8 -1,3 0,3 0,8 2,3 5,7 10 5 13 7 WSW 1019,9 40 0 0,0
18.01.2019 20:00:00 0,5 -1,8 0,1 0,8 2,4 5,7 10 5 27 14 WSW 1019,6 40 0 0,0
18.01.2019 19:00:00 0,3 -2,7 -0,1 0,8 2,4 5,7 18 10 27 15 WSW 1019,1 40 0 0,0
18.01.2019 18:00:00 0,5 -3,6 0,0 0,8 2,4 5,7 13 7 20 11 SW 1019,0 10 0 0,0
18.01.2019 17:00:00 0,2 -4,0 -1,5 0,9 2,5 5,7 15 8 21 11 SSW 1018,8 10 9 0,0
18.01.2019 16:00:00 1,2 -4,1 0,0 0,9 2,5 5,8 15 8 27 14 WSW 1018,6 10 60 0,0
18.01.2019 15:00:00 1,8 -4,7 2,3 1,2 2,5 5,8 21 11 33 18 W 1018,4 10 60 0,0
18.01.2019 14:00:00 1,7 -4,0 2,9 1,1 2,5 5,8 26 14 34 18 W 1018,2 10 60 0,0
18.01.2019 13:00:00 1,6 -2,8 3,1 0,9 2,6 5,8 16 9 29 16 W 1018,0 10 60 0,0
18.01.2019 12:00:00 1,0 -3,4 2,0 0,8 2,6 5,8 19 10 32 17 WNW 1017,6 55 60 0,0
18.01.2019 11:00:00 0,2 -3,4 -0,1 0,9 2,7 5,8 19 10 32 17 WNW 1017,4 55 60 0,0
18.01.2019 10:00:00 -0,6 -4,4 -0,3 0,9 2,8 5,8 24 13 35 19 WNW 1016,5 55 60 0,0
18.01.2019 09:00:00 -0,6 -4,5 -1,5 0,9 2,9 5,8 21 11 38 21 WNW 1015,1 55 11 0,0
18.01.2019 08:00:00 -0,3 -4,4 -0,9 0,9 2,9 5,8 21 11 40 22 NW 1013,3 10 0 0,0
18.01.2019 07:00:00 -0,1 -3,3 -1,0 1,0 3,1 5,7 18 10 34 18 NW 1011,9 10 0 0,0
18.01.2019 06:00:00 -0,1 -2,2 -0,5 1,1 3,2 5,7 18 10 29 16 WNW 1010,7 10 0 0,0
18.01.2019 05:00:00 -0,4 -2,5 -1,1 1,2 3,3 5,7 18 10 35 19 NW 1009,4 10 0 0,1
18.01.2019 04:00:00 -0,1 -2,5 -0,5 1,5 3,5 5,7 21 12 47 25 NW 1007,9 30 0 0,1
18.01.2019 03:00:00 0,7 0,0 0,4 2,0 3,6 5,7 24 13 38 21 W 1005,8 4,3 0 0,0
18.01.2019 02:00:00 1,4 0,0 0,9 2,3 3,7 5,7 29 15 41 22 W 1004,8 8 0 0,1
18.01.2019 01:00:00 1,3 0,5 0,8 2,5 3,8 5,7 22 12 41 22 WSW 1004,2 30 0 0,0
18.01.2019 00:00:00 2,3 0,6 1,7 2,6 3,8 5,7 28 15 46 25 WSW 1003,4 45 0 0,0
17.01.2019 23:00:00 2,6 1,4 2,1 2,8 3,9 5,7 26 14 46 25 W 1002,7 40 0 0,3
17.01.2019 22:00:00 2,6 1,9 2,2 3,0 4,0 5,7 25 13 33 18 WSW 1001,9 27 0 0,1
17.01.2019 21:00:00 2,6 1,9 2,3 3,0 4,0 5,7 21 11 32 17 WSW 1000,7 10 0 0,3
17.01.2019 20:00:00 2,6 1,7 2,2 3,0 4,1 5,7 23 12 34 18 W 999,6 20 0 3,0
17.01.2019 19:00:00 3,0 1,9 2,4 3,5 4,2 5,7 28 15 37 20 W 998,8 6 0 2,0
17.01.2019 18:00:00 4,6 2,3 3,7 3,2 4,3 5,7 13 7 22 12 SSW 998,5 55 0 0,0
17.01.2019 17:00:00 4,5 1,5 2,5 3,5 4,5 5,7 15 8 25 13 S 998,6 60 0 0,0
17.01.2019 16:00:00 5,6 1,3 4,1 4,3 4,5 5,7 18 10 36 20 SW 999,0 60 26 0,0
17.01.2019 15:00:00 6,9 0,5 6,6 5,0 4,4 5,7 29 16 45 24 WSW 999,0 10 54 0,0
17.01.2019 14:00:00 7,4 1,3 8,5 5,4 4,2 5,7 29 16 42 23 WSW 999,5 50 15 0,0
17.01.2019 13:00:00 7,1 1,9 7,6 5,3 4,1 5,7 26 14 38 21 WSW 999,9 10 10 0,0
17.01.2019 12:00:00 6,2 1,6 6,0 4,7 3,9 5,7 29 16 42 23 W 1000,3 10 0 0,0
17.01.2019 11:00:00 6,2 2,3 6,0 4,2 3,8 5,7 26 14 41 22 WSW 1000,7 10 0 0,0
17.01.2019 10:00:00 5,7 2,2 5,2 3,7 3,8 5,7 28 15 38 20 WSW 1000,0 40 0 0,0
17.01.2019 09:00:00 5,3 2,0 4,8 3,4 3,7 5,7 26 14 40 21 WSW 999,5 10 0 0,0
17.01.2019 08:00:00 5,3 1,6 4,7 3,2 3,7 5,7 29 16 42 23 WSW 999,0 10 0 0,0
17.01.2019 07:00:00 5,0 1,3 4,4 3,0 3,7 5,7 30 16 43 23 WSW 998,6 45 0 0,0
17.01.2019 06:00:00 4,6 0,8 4,0 2,8 3,7 5,7 29 16 42 23 WSW 998,6 10 0 0,0
17.01.2019 05:00:00 4,4 0,5 3,8 2,6 3,7 5,7 28 15 39 21 SW 998,5 40 0 0,0
17.01.2019 04:00:00 3,6 0,4 2,9 2,2 3,8 5,7 18 10 29 15 SSW 999,0 10 0 0,0
17.01.2019 03:00:00 3,3 0,1 2,0 2,2 4,0 5,7 21 11 29 15 SSW 999,4 40 0 0,0
17.01.2019 02:00:00 2,8 0,1 1,7 2,3 4,1 5,7 20 11 27 15 SSW 999,9 40 0 0,0
17.01.2019 01:00:00 2,9 0,1 1,7 2,5 4,3 5,7 18 10 28 15 SSW 1000,4 10 0 0,0
17.01.2019 00:00:00 3,3 0,2 1,9 3,0 4,4 5,7 21 11 29 16 SSW 1001,5 10 0 0,0
16.01.2019 23:00:00 4,1 0,6 3,0 3,6 4,5 5,7 22 12 34 18 SW 1002,2 10 0 0,0
16.01.2019 22:00:00 4,9 1,2 4,3 4,0 4,6 5,7 22 12 35 19 SSW 1003,1 10 0 0,0
16.01.2019 21:00:00 5,3 1,0 4,6 4,2 4,7 5,7 22 12 40 22 SW 1003,6 10 0 0,0
16.01.2019 20:00:00 5,6 1,1 5,0 4,4 4,7 5,7 28 15 40 22 SW 1004,2 10 0 0,0
16.01.2019 19:00:00 6,0 2,2 5,4 4,6 4,7 5,7 24 13 43 23 SW 1004,7 10 0 0,0
16.01.2019 18:00:00 6,3 2,8 5,7 4,8 4,8 5,7 28 15 40 22 SW 1005,0 10 0 0,0
16.01.2019 17:00:00 6,5 3,3 5,8 5,0 4,8 5,7 28 15 36 20 SW 1005,7 10 0 0,0
16.01.2019 16:00:00 6,6 3,7 6,1 5,2 4,7 5,7 26 14 35 19 SW 1006,1 50 0 0,0
16.01.2019 15:00:00 6,6 3,8 6,3 5,3 4,7 5,7 25 14 39 21 SW 1006,3 50 0 0,0
16.01.2019 14:00:00 6,8 3,9 6,5 5,3 4,6 5,7 29 16 41 22 SW 1006,9 10 0 0,0
16.01.2019 13:00:00 6,7 4,0 6,4 5,2 4,6 5,7 26 14 36 20 SW 1007,6 10 0 0,0
16.01.2019 12:00:00 6,3 4,0 5,9 5,0 4,5 5,7 28 15 37 20 SW 1008,2 45 0 0,0
16.01.2019 11:00:00 5,9 4,3 5,3 4,9 4,5 5,7 28 15 37 20 SW 1008,8 10 0 0,0
16.01.2019 10:00:00 6,2 4,3 5,7 4,9 4,5 5,7 23 13 31 17 WSW 1008,8 25 0 0,0
16.01.2019 09:00:00 6,1 4,1 5,3 4,8 4,5 5,7 22 12 34 18 WSW 1008,8 25 0 0,0
16.01.2019 08:00:00 6,4 3,9 5,7 4,8 4,4 5,7 26 14 40 22 W 1008,6 25 0 0,0
16.01.2019 07:00:00 6,7 4,3 5,9 5,0 4,4 5,7 32 17 46 25 W 1008,2 25 0 0,1
16.01.2019 06:00:00 6,7 5,3 5,8 5,1 4,3 5,7 26 14 38 21 W 1008,4 15 0 0,3
16.01.2019 05:00:00 6,7 5,7 5,9 5,2 4,3 5,7 26 14 48 26 W 1008,6 14 0 0,2
16.01.2019 04:00:00 7,2 5,4 6,7 5,1 4,2 5,7 29 16 59 32 W 1008,4 10 0 0,0

tt = temperature
td = dewpoint
tt 5cm = temperature 5cm
tt -5cm = temperature -5cm
tt -20cm = temperature -20cm
tt -100cm = temperature -100cm
ff = wind speed
fx = gusts
dd = wind direction
ppp = reduced air pressure
vv = visibility
sd = sunshine duration
rr = precipitation

Next stations